sat.trackr.live / text

‹ back to catalog

KKS-1 (KISEKI)

NORAD 33499 · 2009-002H

PAYLOAD ACTIVE UNKNOWN

§ Identity

Operator
Country
JPN
Launch date
2009-01-23
Launch site
TANSC
Launch vehicle
Mass (kg)
RCS (m²)
0.09

Purposes: comms

External: N2YO · Heavens-Above · Gunter

§ Orbital elements

Epoch: 2026-09-20T02:34:42.626784Z

Period
97.08 min
Inclination
98.1164°
Eccentricity
0.0007674
Mean motion
14.83323401 rev/d
Perigee alt
613.5 km
Apogee alt
624.2 km
Semi-major
6,997.0 km
B*
1.1304e-4
RAAN
187.0497°
Arg perigee
353.4641°
Mean anomaly
6.6471°
Rev number
95,026

§ Raw data

KKS-1 (KISEKI)1 33499U 09002H   26263.10743781  .00000870  00000+0  11304-3 0  99952 33499  98.1164 187.0497 0007674 353.4641   6.6471 14.83323401950260

JSON: /api/v1/satellites/33499 · /tle

For live sub-satellite position, see the globe view (requires WebGL).

§ Visibility from observer

Set your observer location to see the next 7 days of passes ≥ 10°. The values pass through the URL so the page stays shareable.

No JS? Fill the form by hand. The geolocation button needs JavaScript.

§ Radio — SatNOGS DB

ModeDescriptionDownlinkUplink
CW CW Beacon 437.385 MHz
AFSK Mode U MSG 437.445 MHz

2 transmitters · refreshed weekly from db.satnogs.org